Tracking 30692 objects as of 16-Jun-2025
HD Live streaming from Space Station
objects crossing your sky now

YUNYAO-1 19

Track YUNYAO-1 19 now!
10-day predictions


NORAD ID: 58759
Int'l Code: 2024-009B
Perigee: 539.9 km
Apogee: 548.5 km
Inclination: 50.0 °
Period: 95.4 minutes
Semi major axis: 6915 km
RCS: Unknown
Launch date: January 11, 2024
Source: People's Republic of China (PRC)
Launch site: Yellow Sea Launch Area, China (YSLA)
Your satellite tracking list
Your tracking list is empty




NASA's NSSDC Master Catalog

Two Line Element Set (TLE):
1 58759U 24009B   25167.43526133  .00003793  00000-0  24976-3 0  9990
2 58759  49.9843 144.2059 0006187 251.7323 108.2953 15.09708933 79260
Source of the keplerian elements: AFSPC